Time,TemperatureF,DewpointF,PressureIn,WindDirection,WindDirectionDegrees,WindSpeedMPH,WindSpeedGustMPH,Humidity,HourlyPrecipIn,Conditions,Clouds,dailyrainin,SolarRadiationWatts/m^2,SoftwareType,DateUTC
2013-04-09 00:00:00,39.0,39.0,-100.00,NE,45,0.0,-999.0,102,-99.99,,,-99.99,0.000000,,2013-04-09 04:00:00,
2013-04-09 00:43:00,39.0,39.0,-100.00,NE,45,0.0,-999.0,102,-99.99,,,-99.99,0.000000,,2013-04-09 04:43:00,
2013-04-09 00:53:00,39.0,39.0,-100.00,NE,45,0.0,-999.0,102,-99.99,,,-99.99,0.000000,,2013-04-09 04:53:00,
2013-04-09 01:00:00,39.0,39.0,-100.00,ENE,67,0.0,-999.0,102,-99.99,,,-99.99,0.000000,,2013-04-09 05:00:00,
2013-04-09 01:43:00,39.0,39.0,-100.00,ENE,67,0.0,-999.0,102,-99.99,,,-99.99,0.000000,,2013-04-09 05:43:00,
2013-04-09 01:52:00,39.0,39.0,-100.00,ENE,67,0.0,-999.0,102,-99.99,,,-99.99,0.000000,,2013-04-09 05:52:00,
2013-04-09 02:00:00,39.0,39.0,-100.00,ESE,112,0.0,-999.0,103,-99.99,,,-99.99,0.000000,,2013-04-09 06:00:00,
2013-04-09 02:42:00,39.0,39.0,-100.00,ESE,112,0.0,-999.0,103,-99.99,,,-99.99,0.000000,,2013-04-09 06:42:00,
2013-04-09 02:52:00,39.0,39.0,-100.00,ESE,112,0.0,-999.0,103,-99.99,,,-99.99,0.000000,,2013-04-09 06:52:00,
2013-04-09 03:00:00,39.0,39.0,-100.00,East,90,0.0,-999.0,103,-99.99,,,-99.99,0.000000,,2013-04-09 07:00:00,
2013-04-09 03:42:00,39.0,39.0,-100.00,East,90,0.0,-999.0,103,-99.99,,,-99.99,0.000000,,2013-04-09 07:42:00,
2013-04-09 03:53:00,39.0,39.0,-100.00,East,90,0.0,-999.0,103,-99.99,,,-99.99,0.000000,,2013-04-09 07:53:00,
2013-04-09 05:00:00,39.0,39.0,-100.00,ENE,67,0.0,-999.0,103,-99.99,,,-99.99,0.000000,,2013-04-09 09:00:00,
2013-04-09 05:44:00,39.0,39.0,-100.00,ENE,67,0.0,-999.0,103,-99.99,,,-99.99,0.000000,,2013-04-09 09:44:00,
2013-04-09 05:53:00,39.0,39.0,-100.00,ENE,67,0.0,-999.0,103,-99.99,,,-99.99,0.000000,,2013-04-09 09:53:00,
2013-04-09 06:00:00,39.0,39.0,-100.00,NE,45,0.0,-999.0,103,-99.99,,,-99.99,0.000000,,2013-04-09 10:00:00,
2013-04-09 06:43:00,39.0,39.0,-100.00,NE,45,0.0,-999.0,103,-99.99,,,-99.99,0.000000,,2013-04-09 10:43:00,
2013-04-09 06:53:00,39.0,39.0,-100.00,NE,45,0.0,-999.0,103,-99.99,,,-99.99,0.000000,,2013-04-09 10:53:00,
2013-04-09 08:00:00,41.0,41.0,-100.00,East,90,0.0,-999.0,102,-99.99,,,-99.99,12.760000,,2013-04-09 12:00:00,
2013-04-09 08:43:00,41.0,41.0,-100.00,East,90,0.0,-999.0,102,-99.99,,,-99.99,12.760000,,2013-04-09 12:43:00,
2013-04-09 08:53:00,41.0,41.0,-100.00,East,90,0.0,-999.0,102,-99.99,,,-99.99,12.760000,,2013-04-09 12:53:00,
2013-04-09 09:00:00,44.0,43.0,-100.00,East,90,0.0,-999.0,98,0.01,,,-99.99,71.919998,,2013-04-09 13:00:00,
2013-04-09 09:43:00,44.0,43.0,-100.00,East,90,0.0,-999.0,98,0.01,,,-99.99,71.919998,,2013-04-09 13:43:00,
2013-04-09 09:53:00,44.0,43.0,-100.00,East,90,0.0,-999.0,98,0.01,,,-99.99,71.919998,,2013-04-09 13:53:00,
2013-04-09 10:00:00,47.0,44.0,-100.00,East,90,0.0,-999.0,88,0.02,,,-99.99,60.320000,,2013-04-09 14:00:00,
2013-04-09 10:43:00,47.0,44.0,-100.00,East,90,0.0,-999.0,88,0.02,,,-99.99,60.320000,,2013-04-09 14:43:00,
2013-04-09 10:52:00,47.0,44.0,-100.00,East,90,0.0,-999.0,88,0.02,,,-99.99,60.320000,,2013-04-09 14:52:00,
2013-04-09 11:00:00,49.0,45.0,-100.00,ESE,112,0.0,-999.0,85,0.01,,,-99.99,23.200001,,2013-04-09 15:00:00,
2013-04-09 11:44:00,49.0,45.0,-100.00,ESE,112,0.0,-999.0,85,0.01,,,-99.99,23.200001,,2013-04-09 15:44:00,
2013-04-09 11:53:00,49.0,45.0,-100.00,ESE,112,0.0,-999.0,85,0.01,,,-99.99,23.200001,,2013-04-09 15:53:00,
2013-04-09 12:00:00,51.0,45.0,-100.00,East,90,0.0,-999.0,81,-99.99,,,-99.99,106.720001,,2013-04-09 16:00:00,
2013-04-09 12:43:00,51.0,45.0,-100.00,East,90,0.0,-999.0,81,-99.99,,,-99.99,106.720001,,2013-04-09 16:43:00,
2013-04-09 12:54:00,51.0,45.0,-100.00,East,90,0.0,-999.0,81,-99.99,,,-99.99,106.720001,,2013-04-09 16:54:00,
2013-04-09 14:00:00,60.0,50.0,-100.00,ESE,112,0.0,-999.0,69,-99.99,,,-99.99,250.559998,,2013-04-09 18:00:00,
2013-04-09 14:43:00,60.0,50.0,-100.00,ESE,112,0.0,-999.0,69,-99.99,,,-99.99,250.559998,,2013-04-09 18:43:00,
2013-04-09 14:53:00,60.0,50.0,-100.00,ESE,112,0.0,-999.0,69,-99.99,,,-99.99,250.559998,,2013-04-09 18:53:00,
2013-04-09 15:00:00,66.0,54.0,-100.00,SE,135,0.0,-999.0,63,-99.99,,,-99.99,402.519989,,2013-04-09 19:00:00,
2013-04-09 15:53:00,66.0,54.0,-100.00,SE,135,0.0,-999.0,63,-99.99,,,-99.99,402.519989,,2013-04-09 19:53:00,
2013-04-09 16:00:00,68.0,55.0,-100.00,SE,135,0.0,-999.0,63,-99.99,,,-99.99,160.080002,,2013-04-09 20:00:00,
2013-04-09 16:44:00,68.0,55.0,-100.00,SE,135,0.0,-999.0,63,-99.99,,,-99.99,160.080002,,2013-04-09 20:44:00,
2013-04-09 16:53:00,68.0,55.0,-100.00,SE,135,0.0,-999.0,63,-99.99,,,-99.99,160.080002,,2013-04-09 20:53:00,
2013-04-09 17:00:00,69.0,57.0,-100.00,SE,135,0.0,-999.0,64,-99.99,,,-99.99,182.119995,,2013-04-09 21:00:00,
2013-04-09 17:53:00,69.0,57.0,-100.00,SE,135,0.0,-999.0,64,-99.99,,,-99.99,182.119995,,2013-04-09 21:53:00,
2013-04-09 18:00:00,70.0,58.0,-100.00,WSW,247,0.0,-999.0,66,-99.99,,,-99.99,58.000000,,2013-04-09 22:00:00,
2013-04-09 18:43:00,70.0,58.0,-100.00,WSW,247,0.0,-999.0,66,-99.99,,,-99.99,58.000000,,2013-04-09 22:43:00,
2013-04-09 18:53:00,70.0,58.0,-100.00,WSW,247,0.0,-999.0,66,-99.99,,,-99.99,58.000000,,2013-04-09 22:53:00,
2013-04-09 19:00:00,61.0,54.0,-100.00,WNW,292,0.0,-999.0,78,-99.99,,,-99.99,51.040001,,2013-04-09 23:00:00,
2013-04-09 19:43:00,61.0,54.0,-100.00,WNW,292,0.0,-999.0,78,-99.99,,,-99.99,51.040001,,2013-04-09 23:43:00,
2013-04-09 19:53:00,61.0,54.0,-100.00,WNW,292,0.0,-999.0,78,-99.99,,,-99.99,51.040001,,2013-04-09 23:53:00,
2013-04-09 21:00:00,53.0,50.0,-100.00,SSE,157,0.0,-999.0,88,-99.99,,,-99.99,2.320000,,2013-04-10 01:00:00,
2013-04-09 21:43:00,53.0,50.0,-100.00,SSE,157,0.0,-999.0,88,-99.99,,,-99.99,2.320000,,2013-04-10 01:43:00,
2013-04-09 21:53:00,53.0,50.0,-100.00,SSE,157,0.0,-999.0,88,-99.99,,,-99.99,2.320000,,2013-04-10 01:53:00,
2013-04-09 22:00:00,51.0,49.0,-100.00,East,90,0.0,-999.0,93,-99.99,,,-99.99,0.000000,,2013-04-10 02:00:00,
2013-04-09 22:43:00,51.0,49.0,-100.00,East,90,0.0,-999.0,93,-99.99,,,-99.99,0.000000,,2013-04-10 02:43:00,
2013-04-09 22:53:00,51.0,49.0,-100.00,East,90,0.0,-999.0,93,-99.99,,,-99.99,0.000000,,2013-04-10 02:53:00,
2013-04-09 23:00:00,49.0,48.0,-100.00,NE,45,0.0,-999.0,96,-99.99,,,-99.99,0.000000,,2013-04-10 03:00:00,
2013-04-09 23:43:00,49.0,48.0,-100.00,NE,45,0.0,-999.0,96,-99.99,,,-99.99,0.000000,,2013-04-10 03:43:00,
2013-04-09 23:53:00,49.0,48.0,-100.00,NE,45,0.0,-999.0,96,-99.99,,,-99.99,0.000000,,2013-04-10 03:53:00,